Terminal Aerodrome Forecast
Issued by NWS Dallas/Fort Worth, TX

Home | Current Version | Previous Version | Text Only | Print | Product List | Glossary On
Versions: 1 2 3 4 5 6 7 8 9 10 11 12 13 14 15 16 17 18 19 20 21 22 23 24 25 26 27 28 29
000
FTUS44 KFWD 270520
TAFDFW
TAF
KDFW 270520Z 2706/2812 25006KT P6SM SKC
     FM271600 33012KT P6SM SKC
     FM280000 03007KT P6SM SCT250
     FM280900 15005KT P6SM SCT250=

USA.gov is the U.S. government's official web portal to all federal, state and local government web resources and services.